Regional Weather Roundup
Issued by NWS

Home | Current Version | Previous Version | Text Only | Print | Product List | Glossary On
Versions: 1 2 3 4 5 6 7 8 9 10 11 12 13 14 15 16 17 18 19 20 21 22 23 24 25 26 27
000
ASUS42 KTBW 151217
RWRFL
FLORIDA REGIONAL WEATHER ROUNDUP
NATIONAL WEATHER SERVICE TAMPA BAY RUSKIN FL
700 AM EST FRI DEC 15 2017

NOTE: "FAIR" INDICATES FEW OR NO CLOUDS BELOW 12,000 FEET WITH NO
SIGNIFICANT WEATHER AND/OR OBSTRUCTIONS TO VISIBILITY.

FLZ001>010-012>015-112-114-115-151300-
PANHANDLE FLORIDA

CITY           SKY/WX    TMP DP  RH WIND       PRES   REMARKS
PENSACOLA      CLOUDY    50  44  80 N6        30.03R
PENSACOLA NAS  CLOUDY    50  44  80 NW3       30.04R
MILTON NAS     CLOUDY    47  43  86 N6        30.04  WCI  44
CRESTVIEW      MOCLDY    47  41  80 N5        30.05R WCI  45
DUKE FIELD     MOCLDY    45  41  85 N3        30.03S
VALPARAISO     MOCLDY    49  42  77 N5        30.03S
MARY ESTHER    CLOUDY    49  45  86 NE5       30.03R
PANAMA CITY    FAIR      49  42  77 CALM      30.04R
TYNDALL AFB    CLOUDY    52  48  85 CALM      30.04R
APALACHICOLA   CLOUDY    56  56 100 N5        30.03R

STATION/POSITION SKY/WX   TEMP    WIND        PRES    WAVE   SWELL
                          AIR SEA DIR/SP/G            HT/PER HT/PER
                          (F)     (DEG/KT/KT) (MB)    (FT/S) (FT/S)
29.2N   88.2W              66 69  350/ 10/ 12 1017.6
28.8N   86.0W              70 74  240/  6/ 10 1016.5R   1/ 4
PANAMA CITY BEAC           52 62  360/  5/  6 1017.6R
TOWER C                    66     230/  9/  9 1017.2R

$$
FLZ011-016>038-118-127-128-134-139-239-151300-
NORTH FLORIDA

CITY           SKY/WX    TMP DP  RH WIND       PRES   REMARKS
MARIANNA       CLOUDY    46  42  86 CALM      30.03R
TALLAHASSEE    CLOUDY    51  49  92 CALM      30.03S
PERRY          MOCLDY    49  49  97 CALM      30.05R
LIVE OAK       MOCLDY    48  48 100 CALM      30.05R
CROSS CITY     CLEAR     47  47  99 CALM      30.08S
LAKE CITY      FAIR      48  46  93 CALM      30.04S
GAINESVILLE    PTCLDY    48  48 100 CALM      30.06S
WILLISTON      PTCLDY    52  52 100 CALM      30.05R
PALATKA        CLOUDY    50  50 100 CALM      30.05S
MAYPORT NAS    LGT RAIN  58  55  90 W5        30.04R FOG
JACKSONVILLE   CLOUDY    54  50  86 N5        30.03F
JAX NAS        MOCLDY    58  52  80 SW3       30.04S
JAX CECIL      MOCLDY    54  54 100 CALM      30.04R
ST AUGUSTINE   MOCLDY    55  52  89 W3        30.06R
PALM COAST     PTCLDY    57  55  94 S7        30.04S

STATION/POSITION SKY/WX   TEMP    WIND        PRES    WAVE   SWELL
                          AIR SEA DIR/SP/G            HT/PER HT/PER
                          (F)     (DEG/KT/KT) (MB)    (FT/S) (FT/S)
SHELL POINT      NOT AVBL
KEATON BEACH               53      60/  4/  4 1016.6R
CEDAR KEY                  57     100/  2/  2 1017.4R
FERNANDINA                 56 60  300/  2/  3 1018.1S
30.7N   81.3W                 62                N/A     1/11
MAYPORT                    59 62  270/  4/  5 1017.4R
31.4N   80.9W              56 59  220/ 12/ 12 1016.5R   1/ 4
ST AUGUSTINE               57 63  240/  5/  6 1017.7R

$$
FLZ040-043>046-052-053-057-058-063-144-151300-
INTERIOR CENTRAL FLORIDA

CITY           SKY/WX    TMP DP  RH WIND       PRES   REMARKS
OCALA          PTCLDY    53  53 100 S5        30.05S
LEESBURG       CLOUDY    61  59  93 S8        30.06S
SANFORD        CLOUDY    61  55  81 S8        30.06S
ORLANDO EXEC   CLOUDY    62  55  77 S8        30.07R
ORLANDO INTL   MOCLDY    59  55  87 S8        30.08R
KISSIMMEE      MOCLDY    59  53  80 S6        30.08S
WINTER HAVEN   PTCLDY    57  53  86 S6        30.08S
LAKELAND       PTCLDY    55  55 100 CALM      30.07R
BARTOW         MOCLDY    54  54 100 SE3       30.08R
SEBRING        PTSUNNY   58  51  78 CALM      30.08S
OKEECHOBEE     PTCLDY    46  46 100 CALM      30.08S

$$
FLZ041-047-054-059-064-141-147-151300-
EAST CENTRAL FLORIDA

CITY           SKY/WX    TMP DP  RH WIND       PRES   REMARKS
ORMOND BEACH   MOCLDY    59  55  88 CALM      30.06
DAYTONA BEACH  CLOUDY    59  57  93 S6        30.06S
DELAND         CLOUDY    59  55  88 S6        30.05S
NEW SMYRNA BEA MOCLDY    59  55  88 CALM      30.07
JFK SPACE CTR  CLOUDY    60  57  90 SW3       30.06R
TITUSVILLE     CLOUDY    61  54  77 SW12      30.06
CAPE CANAVERAL CLOUDY    60  53  76 S6        30.06R
PATRICK AFB    MOCLDY    59  51  75 SW10      30.07R
MELBOURNE      CLOUDY    57  50  77 SW7       30.08R
VERO BEACH     CLOUDY    51  48  89 SW5       30.09R
FT PIERCE      PTCLDY    48  47  96 CALM      30.09R
STUART         CLEAR     55  46  71 VRB5      30.09S

STATION/POSITION SKY/WX   TEMP    WIND        PRES    WAVE   SWELL
                          AIR SEA DIR/SP/G            HT/PER HT/PER
                          (F)     (DEG/KT/KT) (MB)    (FT/S) (FT/S)
28.5N   80.2W              68 76  220/ 16/ 17 1018.2
TRIDENT PIER               61 68  210/  8/ 11 1019.8R
28.4N   80.5W                 68                N/A     2/ 3
27.5N   80.2W                 70                N/A     2/11

$$
FLZ050-056-061-142-242-148-248-149-249-151-251-155-255-
160-260-151300-
WEST CENTRAL FLORIDA

CITY           SKY/WX    TMP DP  RH WIND       PRES   REMARKS
CRYSTAL RIVER  CLOUDY    61  57  88 SE3       30.04S
INVERNESS      CLOUDY    55  55 100 CALM      30.06R
BROOKSVILLE    CLOUDY    61  58  90 SE8       30.06R
CLEARWATER AIR CLOUDY    63  59  88 SE5       30.04S
ST PETE CLEARW CLOUDY    64  61  90 S8        30.05R
TAMPA INTL     CLOUDY    63  58  83 S6        30.06R
TAMPA EXEC     CLOUDY    59  55  88 S3        30.07R
PLANT CITY     CLOUDY    59  55  88 S5        30.09R
PETER O KNIGHT   N/A     61  61 100 S8        30.06S
ST PETERSBURG  PTCLDY    64  60  87 S9        30.03S
SARASOTA       LGT RAIN  65  61  87 SE8       30.05R
VENICE         NOT AVBL

STATION/POSITION SKY/WX   TEMP    WIND        PRES    WAVE   SWELL
                          AIR SEA DIR/SP/G            HT/PER HT/PER
                          (F)     (DEG/KT/KT) (MB)    (FT/S) (FT/S)
27.3N   84.2W                 75                N/A     3/ 4
CLEARWATER BEACH           64 63  130/  9/ 12 1017.3R
MIDDLE TAMPA BAY           63     180/ 11/ 13 1017.6R
VENICE                     60 66  100/  5/  6 1018.3R

$$
FLZ066-069-070-075>078-162-262-165-265-151300-
SOUTHWEST FLORIDA AND KEYS

CITY           SKY/WX    TMP DP  RH WIND       PRES   REMARKS
PUNTA GORDA    CLEAR     54  51  90 SE3       30.09S
FT MYERS       MOCLDY    58  55  90 CALM      30.07S
SOUTHWEST INTL MOCLDY    55  54  96 CALM      30.08S
NAPLES         CLEAR     54  53  97 CALM      30.07S
MARCO ISLAND   CLEAR     51  50  96 E6        30.09S
IMMOKALEE      FAIR      48  46  93 CALM      30.10R
MARATHON       CLEAR     56  53  90 CALM      30.09S
KEY WEST NAS   PTCLDY    60  60 100 NE5       30.09R
KEY WEST INTL  CLEAR     60  58  92 NE5       30.09R

STATION/POSITION SKY/WX   TEMP    WIND        PRES    WAVE   SWELL
                          AIR SEA DIR/SP/G            HT/PER HT/PER
                          (F)     (DEG/KT/KT) (MB)    (FT/S) (FT/S)
NAPLES                        67  100/  5/  6 1018.2S
DRY TORTUGAS               71     140/  7/  8 1018.5R
SAND KEY                   68                 1019.2R
MOLASSES REEF              65 77  360/  6/  7 1019.1F

$$
FLZ067-068-071>074-168-172>174-151300-
SOUTHEAST FLORIDA

CITY           SKY/WX    TMP DP  RH WIND       PRES   REMARKS
W PALM BEACH   PTCLDY    51  48  89 CALM      30.09S
BOCA RATON     CLEAR     52  50  93 CALM      30.09
FT LAUDER-EXEC CLEAR     52  51  97 CALM      30.09R
FT LAUDERDALE  PTCLDY    58  53  84 CALM      30.08S
POMPANO BEACH  CLEAR     53  51  93 CALM      30.09R
PEMBROKE PINES CLEAR     53  50  89 CALM      30.11R
OPA LOCKA      CLEAR     53  51  93 CALM      30.10R
MIAMI          PTCLDY    56  53  90 CALM      30.10R
WEST KENDALL   CLEAR     52  51  97 CALM      30.10R
HOMESTEAD      CLEAR     51  51 100 CALM      30.09R

STATION/POSITION SKY/WX   TEMP    WIND        PRES    WAVE   SWELL
                          AIR SEA DIR/SP/G            HT/PER HT/PER
                          (F)     (DEG/KT/KT) (MB)    (FT/S) (FT/S)
PORT EVERGLADES            62     290/  3/  4 1018.8R
VIRGINIA KEY               63 72  310/  3/  3 1018.5R
LAKE WORTH                 61 75  270/  2/  3 1019.7S
FOWEY ROCKS                68 76  290/  4/  4 1019.6R
SETTLEMENT POINT           67     120/  5/  5 1019.2R

$$





USA.gov is the U.S. government's official web portal to all federal, state and local government web resources and services.